FALCON HEAVY R/B, 60134

Orbit data source: Space-Track

FALCON HEAVY R/B, 60134 is space debris in HEO originally from a launch on Tue, 25 Jun 2024 UTC launched from the Air Force Eastern Test Range (AFETR). Debris objects in space refer to the collection of defunct objects orbiting the Earth. Examples of debris include non-operational satellites, rocket bodies, and fragments generated from explosions, collisions, or faulty payload assembly.

Loading next visibility...
Identifier
60134, 2024-119B
Orbit
HEO
Country
Flag of USUS
Related business
Manufacturer
SpaceX
Mission
Spacecraft
Bus & Motor
F9ST2, Unknown motor
Mass
~4,000 kg wet, ~4,000 kg dry
Launch date (UTC)
2024-06-25 (2 years ago)
Launch vehicle
Unknown
Launch site
Air Force Eastern Test Range (AFETR)
Object type
Payload
Rocket body
Debris
Shape & HBR
Cyl, 8.0 m
Radar Cross Section
49.816 m², Large (>1 m²)

Expand to show TLE details & history
Last TLE update: 23 hours ago

TLE from 23 hours ago
0 FALCON HEAVY R/B
1 60134U 24119B   26257.07753212 -.00000125  00000-0  00000-0 0  9999
2 60134   6.0469  63.6855 2944240 246.8865  79.7844  1.51714934 12308
Epoch: 2026-09-14T01:51Z
TLE epoch observation values (Epoch: 2026-09-14T01:51:38.775Z)
Latitude
-0.00001°
Longitude
42.8625°
Altitude
26,652.648 km
Speed
3.417 km/s
True Right ascension
04h 15m 20s
True Declination
0° 00' 00"
Sunlit
Object was in daylight at epoch
Visualization orbit readout
Latitude
Unknown
Longitude
Unknown
Altitude
Unknown
Speed
Unknown
Apparent Right ascension
Unknown
Apparent Declination
Unknown
Sunlit
N/A
Visualization observer readout
Local Sidereal Time
17:55:08
Azimuth
Unknown
Elevation
Unknown
Doppler factor
Unknown
Orbital elements
Apogee altitude
35,035.893 km
Perigee altitude
16,196.186 km
Semi-major axis
31,994.177 km
Eccentricity
0.29442
Inclination
6.0469°
RAAN
63.6855°
Arg. of periapsis
246.8865°
True anomaly
113.27396°
Mean anomaly
79.7844°
Eccentric anomaly
96.54375°
Mean motion
0.37926 °/min
Orbital period
949.22 mins
BSTAR
0
Loading maneuver chart data...
Computing Atmospheric mass density...
Loading historical data...
Loading historical data...
Loading historical data...
Loading historical data...
Loading historical data...
Loading historical data...
Loading historical data...
Other satellites on launch #119 in the year 2024 (2024-06-25 UTC)

Documentation

Showing up to 5 results
|